Lid_Strength_Index
15 15 15 15 15 16 16 17 18 18 18 18 18 18 19 19 19 20 20 20 20 20 19 19 18 18 18 18 18 18 18 17 19 18 17 16 16 16 15 15 14 14 14
15 15 15 16 16 17 18 18 18 19 19 19 19 19 19 20 20 20 20 20 20 20 20 19 19 18 19 18 18 18 18 17 18 19 17 17 17 16 16 16 15 14 14
15 16 16 17 18 18 18 19 18 19 19 19 19 20 20 20 20 20 20 20 20 20 19 19 19 19 18 18 18 18 17 16 16 17 18 16 16 15 15 14 14 14 13
16 16 17 18 18 18 18 18 18 19 19 20 20 20 20 20 20 19 19 19 19 18 18 18 18 17 17 17 16 16 16 16 16 16 16 15 15 14 14 15 15 13 14
16 16 17 18 18 18 18 18 18 19 19 19 20 20 20 20 19 18 17 18 18 19 18 17 16 16 14 14 15 15 15 16 15 15 15 15 15 15 15 13 14 14 13
16 17 17 17 17 17 18 18 18 19 19 19 20 20 20 19 17 16 16 17 18 18 17 17 16 16 15 13 13 12 12 13 14 14 14 15 14 13 13 13 14 14 15
16 17 17 17 18 18 18 18 19 19 20 20 20 20 20 20 17 16 16 16 17 17 16 16 15 15 15 15 13 11 10 9 9 11 13 13 13 12 12 12 12 13 13
17 17 17 17 18 18 18 19 20 19 20 20 20 20 20 19 16 16 15 16 16 16 16 15 15 15 14 12 11 11 11 11 11 11 11 11 10 9 10 10 11 12 11
17 17 17 17 18 19 20 20 20 20 20 20 20 20 20 21 17 15 15 16 15 15 15 14 14 13 11 9 10 13 13 13 11 9 8 9 8 9 10 11 14 15 15
16 17 17 17 18 19 19 19 19 19 19 19 19 21 21 23 16 15 14 15 18 15 14 13 11 11 9 8 11 14 16 14 11 13 13 12 11 12 11 12 13 16 16
15 16 16 17 17 18 18 19 20 21 20 23 22 22 22 20 19 14 12 13 15 15 13 12 11 9 8 8 8 14 13 9 13 15 15 15 14 14 13 13 13 14 16
15 16 17 17 17 19 20 22 22 23 25 26 26 23 20 19 16 14 12 10 10 16 15 11 11 8 8 8 10 9 8 11 16 16 16 16 15 15 14 13 13 13 12
16 17 17 19 19 21 22 23 23 24 23 23 22 22 21 18 18 12 10 10 10 11 11 10 7 8 9 11 10 9 12 16 16 17 17 15 15 14 13 13 12 12 12
16 18 20 20 21 22 21 21 22 23 22 21 21 20 21 19 17 17 16 16 12 11 10 13 11 10 11 12 15 13 14 14 15 16 15 15 14 14 15 14 14 13 14
17 19 20 20 20 21 21 21 21 20 19 22 21 22 22 21 18 13 14 15 15 13 11 19 22 20 19 17 18 16 15 15 16 16 16 16 15 15 15 13 14 14 16
19 20 20 20 21 21 21 21 15 15 14 12 12 18 19 13 11 9 8 7 7 7 14 24 23 21 19 18 19 17 16 16 16 16 16 16 16 16 15 14 14 15 16
17 19 20 20 20 20 20 20 20 18 11 11 10 9 9 9 8 7 7 7 7 8 22 25 24 22 20 18 18 17 17 16 16 17 17 17 17 16 15 15 15 15 16
21 19 19 19 19 19 19 19 20 21 20 20 13 10 9 9 8 8 7 8 16 19 23 25 24 24 21 20 19 18 18 17 17 18 17 18 17 17 16 16 16 16 16
20 19 19 19 19 19 20 22 23 25 26 26 23 16 14 12 11 10 9 16 20 21 20 22 22 23 22 22 21 21 21 19 19 19 19 18 18 17 16 16 16 16 16
21 20 20 20 22 22 22 22 24 25 26 25 22 19 19 23 25 22 20 20 20 19 19 21 21 21 20 22 23 23 22 21 21 21 19 19 18 17 16 16 16 17 16
21 22 22 22 22 22 23 23 22 21 22 21 21 21 15 20 21 23 23 22 19 18 18 19 19 21 20 22 25 25 24 21 22 23 20 19 18 19 17 16 17 17 17
22 22 22 22 23 23 23 21 21 23 23 23 25 27 15 24 26 27 25 22 20 19 18 19 19 20 19 21 24 26 25 23 24 26 22 21 20 19 18 16 17 18 18
22 23 23 23 22 23 24 26 26 27 28 30 30 29 30 28 26 28 25 21 19 19 18 19 20 20 19 21 24 25 24 22 23 28 23 22 22 20 18 17 17 19 19
22 22 22 23 24 26 26 27 29 28 30 30 31 30 29 28 28 26 24 21 19 19 20 20 20 21 20 21 22 26 26 24 24 23 26 24 22 20 19 16 17 18 20
23 23 24 24 26 27 28 30 29 31 31 30 29 30 30 29 28 26 25 24 23 21 21 21 21 22 22 24 23 26 26 23 24 23 24 24 22 21 19 17 18 19 21
23 24 26 27 28 28 28 28 30 29 31 29 28 29 29 29 27 27 26 25 24 24 22 21 22 23 23 24 25 24 22 19 20 21 21 21 20 18 17 17 19 19 20